Nanticoke River Bridgeville DE USA current weather conditions

sailwx.info

Air temperature 14.3° C
Dewpoint 13.6° C

Last reported at 2020-Sep-24 07:00 UTC.
Time now 2020-Sep-24 07:17 UTC

Location: N 38°43' W 075°35'.
View on Google Maps.

See reports from other nearby stations

  
Tides and Currents Weather Stations Pressure Air Temp Water Temp Dewpoint Dewpoint Depression Visibility Wind Speed Wind Dir Waves Ship Positions
date/time (UTC)wind fromknots sea level pressurealtimeterstation pressurevisibilityair tempwater tempwave heightnotes
2020-Sep-24 07:00 14.3
2020-Sep-24 06:55 187 0 gusting 1 14.3
2020-Sep-24 06:50 14.3
2020-Sep-24 06:45 243 0 gusting 0 14.3
2020-Sep-24 06:40 14.3
2020-Sep-24 06:35 14.3
2020-Sep-24 06:30 196 0 gusting 0 14.5
2020-Sep-24 06:25 282 0 gusting 0 14.5
2020-Sep-24 06:20 299 0 gusting 0 14.5
2020-Sep-24 06:15 281 0 gusting 0 14.5
2020-Sep-24 06:10 185 0 gusting 0 14.6
2020-Sep-24 06:05 14.7
2020-Sep-24 06:00 210 0 gusting 0 14.7
2020-Sep-24 05:55 354 0 gusting 1 14.7
2020-Sep-24 05:50 345 0 gusting 1 14.7
2020-Sep-24 05:45 194 0 gusting 1 14.7
2020-Sep-24 05:40 14.8
2020-Sep-24 05:35 203 1 gusting 2 14.8
2020-Sep-24 05:30 197 0 gusting 2 14.6
2020-Sep-24 05:25 198 1 gusting 2 14.9
2020-Sep-24 05:20 200 1 gusting 2 15.0
2020-Sep-24 05:15 188 0 gusting 2 15.1
2020-Sep-24 05:10 182 0 gusting 1 15.2
2020-Sep-24 05:05 203 1 gusting 2 15.1
2020-Sep-24 05:00 194 0 gusting 1 15.0
2020-Sep-24 04:55 201 0 gusting 1 15.3
2020-Sep-24 04:50 201 1 gusting 2 15.6
2020-Sep-24 04:45 199 1 gusting 2 15.6
2020-Sep-24 04:40 196 0 gusting 2 15.7
2020-Sep-24 04:35 200 1 gusting 2 15.8
2020-Sep-24 04:30 197 1 gusting 1 15.8
2020-Sep-24 04:25 198 1 gusting 2 16.0
2020-Sep-24 04:20 198 0 gusting 1 16.1
2020-Sep-24 04:15 192 1 gusting 2 16.1
2020-Sep-24 04:10 203 0 gusting 1 16.0
2020-Sep-24 04:05 203 0 gusting 1 16.0
2020-Sep-24 04:00 205 0 gusting 2 16.0
2020-Sep-24 03:55 229 0 gusting 0 16.0
2020-Sep-24 03:50 289 0 gusting 0 15.9
2020-Sep-24 03:45 220 0 gusting 1 15.9
2020-Sep-24 03:40 209 0 gusting 0 16.2
2020-Sep-24 03:35 304 0 gusting 0 16.3
2020-Sep-24 03:30 288 0 gusting 1 16.3
2020-Sep-24 03:25 260 0 gusting 0 16.4
2020-Sep-24 03:20 294 0 gusting 2 16.5
2020-Sep-24 03:15 302 0 gusting 0 16.5
2020-Sep-24 03:10 227 0 gusting 1 16.6
2020-Sep-24 03:05 275 0 gusting 1 16.7
2020-Sep-24 03:00 255 0 gusting 0 16.8
2020-Sep-24 02:55 229 0 gusting 2 16.9
2020-Sep-24 02:50 239 0 gusting 1 16.7
2020-Sep-24 02:45 263 0 gusting 2 16.7
2020-Sep-24 02:40 290 0 gusting 0 17.1
2020-Sep-24 02:35 238 0 gusting 2 17.0
2020-Sep-24 02:30 251 0 gusting 3 16.9
2020-Sep-24 02:25 251 0 gusting 1 16.9
2020-Sep-24 02:20 260 0 gusting 1 16.9
2020-Sep-24 02:15 265 0 gusting 3 16.9
2020-Sep-24 02:10 285 0 gusting 1 17.1
2020-Sep-24 02:05 222 0 gusting 2 17.2
2020-Sep-24 02:00 221 0 gusting 2 17.1
2020-Sep-24 01:55 237 0 gusting 1 17.1
2020-Sep-24 01:50 289 0 gusting 0 17.3
2020-Sep-24 01:45 301 0 gusting 0 17.6
2020-Sep-24 01:40 211 0 gusting 3 17.5
2020-Sep-24 01:35 207 0 gusting 1 17.5
2020-Sep-24 01:30 293 0 gusting 1 17.5
2020-Sep-24 01:25 269 0 gusting 0 17.7
2020-Sep-24 01:20 301 0 gusting 1 17.9
2020-Sep-24 01:15 274 0 gusting 1 18.0
2020-Sep-24 01:10 264 0 gusting 0 18.2
2020-Sep-24 01:05 206 0 gusting 2 18.2
2020-Sep-24 01:00 228 0 gusting 1 18.3
2020-Sep-24 00:55 242 0 gusting 2 18.3
2020-Sep-24 00:50 222 0 gusting 2 18.5
2020-Sep-24 00:45 243 0 gusting 2 18.6
2020-Sep-24 00:40 241 0 gusting 2 18.7
2020-Sep-24 00:35 241 1 gusting 3 18.7
2020-Sep-24 00:30 255 0 gusting 2 18.8
2020-Sep-24 00:25 254 0 gusting 2 18.9
2020-Sep-24 00:20 256 0 gusting 3 18.9
2020-Sep-24 00:15 253 0 gusting 3 19.0
2020-Sep-24 00:10 253 0 gusting 2 19.1
2020-Sep-24 00:05 233 1 gusting 2 19.1
2020-Sep-24 00:00 241 0 gusting 2 19.1
2020-Sep-23 23:55 249 0 gusting 2 19.2
2020-Sep-23 23:50 243 0 gusting 2 19.3
2020-Sep-23 23:45 232 0 gusting 2 19.3
2020-Sep-23 23:40 257 0 gusting 1 19.6
2020-Sep-23 23:35 261 1 gusting 2 19.7
2020-Sep-23 23:30 270 0 gusting 2 19.8
2020-Sep-23 23:25 270 1 gusting 2 19.7
2020-Sep-23 23:20 265 0 gusting 1 19.9
2020-Sep-23 23:15 237 0 gusting 1 20.3
2020-Sep-23 23:10 250 0 gusting 3 20.2
2020-Sep-23 23:05 242 0 gusting 1 20.5
2020-Sep-23 23:00 235 0 gusting 2 20.8
2020-Sep-23 22:55 260 0 gusting 1 21.0
2020-Sep-23 22:50 271 0 gusting 1 21.2
2020-Sep-23 22:45 257 0 gusting 2 21.6
2020-Sep-23 22:40 260 0 gusting 2 22.1
2020-Sep-23 22:35 265 0 gusting 1 22.3
2020-Sep-23 22:30 260 0 gusting 1 22.5
2020-Sep-23 22:25 259 0 gusting 2 22.7
2020-Sep-23 22:20 269 0 gusting 2 23.2
2020-Sep-23 22:15 270 0 gusting 2 23.3
2020-Sep-23 22:10 277 1 gusting 3 23.7
2020-Sep-23 22:05 285 0 gusting 3 23.8
2020-Sep-23 22:00 276 1 gusting 3 23.7
2020-Sep-23 21:55 283 1 gusting 3 23.7
2020-Sep-23 21:50 283 1 gusting 4 23.7
2020-Sep-23 21:45 287 2 gusting 6 23.8
2020-Sep-23 21:40 291 2 gusting 8 23.9
2020-Sep-23 21:35 287 2 gusting 6 24.0
2020-Sep-23 21:30 285 3 gusting 7 23.9
2020-Sep-23 21:25 296 3 gusting 9 24.0
2020-Sep-23 21:20 290 3 gusting 9 24.0
2020-Sep-23 21:15 289 4 gusting 11 24.1
2020-Sep-23 21:10 277 3 gusting 8 24.2
2020-Sep-23 21:05 271 3 gusting 6 24.2
2020-Sep-23 21:00 272 3 gusting 7 24.5
2020-Sep-23 20:55 250 2 gusting 5 24.7
2020-Sep-23 20:50 268 2 gusting 4 24.6
2020-Sep-23 20:45 277 2 gusting 6 24.7
2020-Sep-23 20:40 296 4 gusting 9 24.6
2020-Sep-23 20:35 297 5 gusting 10 24.7
2020-Sep-23 20:30 263 3 gusting 7 25.1
2020-Sep-23 20:25 270 1 gusting 5 25.1
2020-Sep-23 20:20 284 3 gusting 7 25.2
2020-Sep-23 20:15 259 2 gusting 6 25.0
2020-Sep-23 20:10 283 3 gusting 7 25.1
2020-Sep-23 20:05 257 2 gusting 7 25.3
2020-Sep-23 20:00 297 3 gusting 7 25.1
2020-Sep-23 19:55 304 5 gusting 10 25.1
2020-Sep-23 19:50 302 3 gusting 9 25.2
2020-Sep-23 19:45 286 4 gusting 7 25.1
2020-Sep-23 19:40 281 3 gusting 7 25.4
2020-Sep-23 19:35 284 2 gusting 4 25.5
2020-Sep-23 19:30 289 2 gusting 5 25.4
2020-Sep-23 19:25 291 3 gusting 5 25.3
2020-Sep-23 19:20 297 3 gusting 6 25.3
2020-Sep-23 19:15 303 3 gusting 7 25.2
2020-Sep-23 19:10 299 4 gusting 9 25.0
2020-Sep-23 19:05 278 2 gusting 8 25.2
2020-Sep-23 19:00 308 3 gusting 7 25.1
2020-Sep-23 18:55 301 3 gusting 6 25.1
2020-Sep-23 18:50 296 3 gusting 7 25.2
2020-Sep-23 18:45 285 4 gusting 9 25.0
2020-Sep-23 18:40 290 3 gusting 8 25.4
2020-Sep-23 18:35 297 3 gusting 9 25.4
2020-Sep-23 18:30 313 2 gusting 7 25.4
2020-Sep-23 18:25 332 3 gusting 5 25.2
2020-Sep-23 18:20 320 3 gusting 8 25.1
2020-Sep-23 18:15 320 3 gusting 6 24.8
2020-Sep-23 18:10 293 4 gusting 7 24.5
2020-Sep-23 18:05 280 3 gusting 7 24.8
2020-Sep-23 18:00 291 2 gusting 5 24.8
2020-Sep-23 17:55 308 4 gusting 7 24.5
2020-Sep-23 17:50 310 3 gusting 7 24.5
2020-Sep-23 17:45 284 4 gusting 8 24.5
2020-Sep-23 17:40 287 3 gusting 5 24.7
2020-Sep-23 17:35 316 3 gusting 6 24.9
2020-Sep-23 17:30 306 3 gusting 6 24.3
2020-Sep-23 17:25 308 4 gusting 7 24.2
2020-Sep-23 17:20 308 4 gusting 9 24.3
2020-Sep-23 17:15 331 3 gusting 5 24.4
2020-Sep-23 17:10 303 3 gusting 6 23.8
2020-Sep-23 17:05 310 3 gusting 7 24.1
2020-Sep-23 17:00 332 3 gusting 5 23.9
2020-Sep-23 16:55 312 4 gusting 8 24.0
2020-Sep-23 16:50 301 3 gusting 7 24.0
2020-Sep-23 16:45 340 3 gusting 7 24.0
2020-Sep-23 16:40 326 4 gusting 9 23.7
2020-Sep-23 16:35 305 4 gusting 7 23.5
2020-Sep-23 16:30 338 4 gusting 9 24.4
2020-Sep-23 16:25 325 2 gusting 5 23.9
2020-Sep-23 16:20 324 3 gusting 9 23.7
2020-Sep-23 16:15 319 3 gusting 5 23.3
2020-Sep-23 16:10 313 4 gusting 9 23.2
2020-Sep-23 16:05 307 4 gusting 8 23.0
2020-Sep-23 16:00 313 3 gusting 9 22.9
2020-Sep-23 15:55 310 4 gusting 8 22.8
2020-Sep-23 15:50 311 3 gusting 7 22.8
2020-Sep-23 15:45 305 3 gusting 6 22.6
2020-Sep-23 15:40 305 4 gusting 8 22.6
2020-Sep-23 15:35 322 3 gusting 7 22.6
2020-Sep-23 15:30 322 4 gusting 8 22.2
2020-Sep-23 15:25 299 4 gusting 8 22.4
2020-Sep-23 15:20 335 2 gusting 6 22.4
2020-Sep-23 15:15 316 3 gusting 6 22.1
2020-Sep-23 15:10 317 3 gusting 6 22.0
2020-Sep-23 15:05 319 3 gusting 7 21.7
2020-Sep-23 15:00 332 3 gusting 7 21.4
2020-Sep-23 14:55 317 4 gusting 7 21.2
2020-Sep-23 14:50 305 4 gusting 9 21.3
2020-Sep-23 14:45 320 2 gusting 6 21.2
2020-Sep-23 14:40 317 3 gusting 5 20.9
2020-Sep-23 14:35 308 4 gusting 7 20.7
2020-Sep-23 14:30 307 4 gusting 7 20.6
2020-Sep-23 14:25 326 3 gusting 6 20.6
2020-Sep-23 14:20 324 3 gusting 7 20.4
2020-Sep-23 14:15 326 3 gusting 7 20.2
2020-Sep-23 14:10 306 4 gusting 8 20.1
2020-Sep-23 14:05 316 3 gusting 5 20.0
2020-Sep-23 14:00 324 2 gusting 5 20.0
2020-Sep-23 13:55 316 2 gusting 6 19.6
2020-Sep-23 13:50 319 3 gusting 6 19.5
2020-Sep-23 13:45 329 2 gusting 5 19.3
2020-Sep-23 13:40 328 2 gusting 5 19.0
2020-Sep-23 13:35 333 3 gusting 7 18.7
2020-Sep-23 13:30 331 3 gusting 8 18.5
2020-Sep-23 13:25 328 2 gusting 6 18.2
2020-Sep-23 13:20 338 2 gusting 7 17.9
2020-Sep-23 13:15 330 3 gusting 6 17.5
2020-Sep-23 13:10 330 3 gusting 6 17.3
2020-Sep-23 13:05 330 2 gusting 4 16.9
2020-Sep-23 13:00 325 2 gusting 5 16.7
2020-Sep-23 12:55 325 3 gusting 6 16.4
2020-Sep-23 12:50 335 2 gusting 5 16.1
2020-Sep-23 12:45 331 2 gusting 6 15.8
2020-Sep-23 12:40 332 2 gusting 5 15.6
2020-Sep-23 12:35 331 2 gusting 6 15.3
2020-Sep-23 12:30 323 2 gusting 5 14.9
2020-Sep-23 12:25 322 2 gusting 4 14.7
2020-Sep-23 12:20 319 1 gusting 4 14.3
2020-Sep-23 12:15 314 2 gusting 3 14.1
2020-Sep-23 12:10 310 2 gusting 3 13.8
2020-Sep-23 12:05 315 1 gusting 3 13.6
2020-Sep-23 12:00 321 1 gusting 2 13.4
2020-Sep-23 11:55 329 1 gusting 2 13.2
2020-Sep-23 11:50 327 1 gusting 2 13.1
2020-Sep-23 11:45 333 1 gusting 2 13.0
2020-Sep-23 11:40 328 1 gusting 2 12.7
2020-Sep-23 11:35 333 1 gusting 3 12.4
2020-Sep-23 11:30 328 1 gusting 3 12.1
2020-Sep-23 11:25 321 1 gusting 3 12.0
2020-Sep-23 11:20 329 1 gusting 3 11.9
2020-Sep-23 11:15 333 1 gusting 3 11.7
2020-Sep-23 11:10 329 1 gusting 4 11.6
2020-Sep-23 11:05 329 1 gusting 3 11.4
2020-Sep-23 11:00 322 1 gusting 3 11.3
2020-Sep-23 10:55 313 1 gusting 2 11.3
2020-Sep-23 10:50 316 1 gusting 2 11.3
2020-Sep-23 10:45 316 1 gusting 2 11.3
2020-Sep-23 10:40 309 1 gusting 2 11.3
2020-Sep-23 10:35 305 1 gusting 2 11.3
2020-Sep-23 10:30 305 2 gusting 2 11.3
2020-Sep-23 10:25 303 2 gusting 2 11.2
2020-Sep-23 10:20 302 1 gusting 2 11.2
2020-Sep-23 10:15 304 1 gusting 1 11.2
2020-Sep-23 10:10 305 1 gusting 2 11.2
2020-Sep-23 10:05 308 1 gusting 2 11.3
2020-Sep-23 10:00 308 1 gusting 2 11.4
2020-Sep-23 09:55 309 1 gusting 2 11.5
2020-Sep-23 09:50 310 1 gusting 2 11.4
2020-Sep-23 09:45 307 1 gusting 1 11.4
2020-Sep-23 09:40 322 1 gusting 2 11.3
2020-Sep-23 09:35 318 1 gusting 2 11.2
2020-Sep-23 09:30 314 1 gusting 2 11.1
2020-Sep-23 09:25 310 1 gusting 2 11.0
2020-Sep-23 09:20 311 1 gusting 2 10.9
2020-Sep-23 09:15 307 1 gusting 2 10.9
2020-Sep-23 09:10 304 1 gusting 2 11.0
2020-Sep-23 09:05 305 2 gusting 3 11.1
2020-Sep-23 09:00 316 1 gusting 3 11.1
2020-Sep-23 08:55 319 1 gusting 1 11.2
2020-Sep-23 08:50 322 1 gusting 2 11.3
2020-Sep-23 08:45 323 1 gusting 2 11.3
2020-Sep-23 08:40 330 1 gusting 3 11.2
2020-Sep-23 08:35 325 1 gusting 2 11.1
2020-Sep-23 08:30 318 0 gusting 1 11.1
2020-Sep-23 08:25 316 1 gusting 2 11.0
2020-Sep-23 08:20 312 1 gusting 2 11.0
2020-Sep-23 08:15 317 0 gusting 1 11.0
2020-Sep-23 08:10 329 0 gusting 1 10.9
2020-Sep-23 08:05 319 0 gusting 1 11.0
2020-Sep-23 08:00 315 0 gusting 1 11.1
2020-Sep-23 07:55 327 1 gusting 1 11.1
2020-Sep-23 07:50 308 1 gusting 1 11.1
2020-Sep-23 07:45 305 1 gusting 2 11.3
2020-Sep-23 07:40 306 1 gusting 2 11.3
2020-Sep-23 07:35 313 1 gusting 3 11.4
2020-Sep-23 07:30 308 1 gusting 2 11.4
2020-Sep-23 07:25 309 1 gusting 2 11.4
2020-Sep-23 07:20 301 2 gusting 2 11.6
2020-Sep-23 07:15 301 2 gusting 3 11.7
2020-Sep-23 07:10 305 2 gusting 4 11.9
2020-Sep-23 07:05 307 2 gusting 3 11.8
2020-Sep-23 07:00 310 1 gusting 2 11.8
2020-Sep-23 06:55 316 1 gusting 2 11.9
2020-Sep-23 06:50 313 1 gusting 2 12.1
2020-Sep-23 06:45 309 2 gusting 3 12.3
2020-Sep-23 06:40 305 2 gusting 3 12.2
2020-Sep-23 06:35 303 2 gusting 3 12.1
2020-Sep-23 06:30 296 2 gusting 4 12.3
2020-Sep-23 06:25 302 2 gusting 4 12.4
2020-Sep-23 06:20 307 2 gusting 3 12.2
2020-Sep-23 06:15 295 1 gusting 3 12.0
2020-Sep-23 06:10 297 1 gusting 3 12.2
2020-Sep-23 06:05 297 2 gusting 3 12.4
2020-Sep-23 06:00 307 2 gusting 3 12.4
2020-Sep-23 05:55 300 2 gusting 3 12.4
2020-Sep-23 05:50 299 2 gusting 3 12.5
2020-Sep-23 05:45 296 2 gusting 4 12.7
2020-Sep-23 05:40 296 1 gusting 3 12.8
2020-Sep-23 05:35 292 1 gusting 4 12.8
2020-Sep-23 05:30 287 1 gusting 3 12.8
2020-Sep-23 05:25 287 1 gusting 3 12.7
2020-Sep-23 05:20 291 1 gusting 4 12.6
2020-Sep-23 05:15 287 2 gusting 4 12.4
2020-Sep-23 05:10 277 1 gusting 3 12.1
2020-Sep-23 05:05 285 1 gusting 2 11.8
2020-Sep-23 05:00 282 1 gusting 2 11.8
2020-Sep-23 04:55 285 1 gusting 2 11.9
2020-Sep-23 04:50 292 1 gusting 2 11.8
2020-Sep-23 04:45 291 1 gusting 1 11.9
2020-Sep-23 04:40 287 0 gusting 1 11.9
2020-Sep-23 04:35 292 0 gusting 2 12.0
2020-Sep-23 04:30 285 0 gusting 1 11.8
2020-Sep-23 04:25 285 1 gusting 1 11.7
2020-Sep-23 04:20 284 1 gusting 1 11.6
2020-Sep-23 04:15 288 0 gusting 1 11.4
2020-Sep-23 04:10 281 0 gusting 1 11.3
2020-Sep-23 04:05 290 1 gusting 1 11.3
2020-Sep-23 04:00 295 1 gusting 2 11.2
2020-Sep-23 03:55 292 1 gusting 2 11.2
2020-Sep-23 03:50 297 1 gusting 2 11.5
2020-Sep-23 03:45 290 0 gusting 1 11.6
2020-Sep-23 03:40 275 0 gusting 2 11.8
2020-Sep-23 03:35 275 0 gusting 1 11.9
2020-Sep-23 03:30 270 0 gusting 1 11.9
2020-Sep-23 03:25 281 0 gusting 1 12.0
2020-Sep-23 03:20 282 0 gusting 1 12.2
2020-Sep-23 03:15 270 0 gusting 1 12.3
2020-Sep-23 03:10 281 0 gusting 2 12.3
2020-Sep-23 03:05 271 0 gusting 1 12.4
2020-Sep-23 03:00 276 0 gusting 1 12.5
2020-Sep-23 02:55 275 1 gusting 3 12.4
2020-Sep-23 02:50 278 0 gusting 2 12.3
2020-Sep-23 02:45 274 1 gusting 2 12.3
2020-Sep-23 02:40 277 0 gusting 3 12.4
2020-Sep-23 02:35 276 0 gusting 2 12.5
2020-Sep-23 02:30 268 0 gusting 2 12.6
2020-Sep-23 02:25 276 0 gusting 1 12.8
2020-Sep-23 02:20 280 0 gusting 2 13.1
2020-Sep-23 02:15 257 0 gusting 2 12.9
2020-Sep-23 02:10 254 0 gusting 1 12.7
2020-Sep-23 02:05 275 0 gusting 2 12.7
2020-Sep-23 02:00 286 0 gusting 2 12.8
2020-Sep-23 01:55 293 1 gusting 2 12.8
2020-Sep-23 01:50 287 0 gusting 2 12.9
2020-Sep-23 01:45 291 1 gusting 2 13.2
2020-Sep-23 01:40 280 0 gusting 1 13.3
2020-Sep-23 01:35 283 0 gusting 2 13.5
2020-Sep-23 01:30 287 1 gusting 2 13.8
2020-Sep-23 01:25 282 0 gusting 2 14.0
2020-Sep-23 01:20 278 1 gusting 3 14.0
2020-Sep-23 01:15 286 0 gusting 2 13.9
2020-Sep-23 01:10 286 0 gusting 2 13.9
2020-Sep-23 01:05 275 0 gusting 2 13.9
2020-Sep-23 01:00 286 1 gusting 2 14.0
2020-Sep-23 00:55 291 1 gusting 3 14.2
2020-Sep-23 00:50 292 1 gusting 3 14.4
2020-Sep-23 00:45 286 1 gusting 3 14.5
2020-Sep-23 00:40 283 1 gusting 3 14.4
2020-Sep-23 00:35 281 1 gusting 3 14.5
2020-Sep-23 00:30 280 1 gusting 3 14.5
2020-Sep-23 00:25 280 1 gusting 2 14.6
2020-Sep-23 00:20 286 1 gusting 3 14.7
2020-Sep-23 00:15 284 1 gusting 3 14.7
2020-Sep-23 00:10 285 1 gusting 2 14.8
2020-Sep-23 00:05 280 1 gusting 2 14.5
2020-Sep-23 00:00 289 1 gusting 2 14.3
2020-Sep-22 23:55 291 1 gusting 2 14.4
2020-Sep-22 23:50 283 1 gusting 2 14.5
2020-Sep-22 23:45 292 0 gusting 2 14.6
2020-Sep-22 23:40 285 0 gusting 2 15.0
2020-Sep-22 23:35 281 0 gusting 2 15.5
2020-Sep-22 23:30 277 0 gusting 2 15.8
2020-Sep-22 23:25 265 0 gusting 1 16.0
2020-Sep-22 23:20 262 0 gusting 1 16.2
2020-Sep-22 23:15 262 0 gusting 1 16.0
2020-Sep-22 23:10 271 0 gusting 0 16.2
2020-Sep-22 23:05 280 1 gusting 4 16.5
2020-Sep-22 23:00 287 1 gusting 3 16.6
2020-Sep-22 22:55 282 1 gusting 2 16.7
2020-Sep-22 22:50 285 1 gusting 3 16.9
2020-Sep-22 22:45 288 1 gusting 3 17.2
2020-Sep-22 22:40 294 2 gusting 4 17.6
2020-Sep-22 22:35 295 2 gusting 5 18.0
2020-Sep-22 22:30 298 2 gusting 5 18.3
2020-Sep-22 22:25 299 2 gusting 7 18.5
2020-Sep-22 22:20 295 2 gusting 5 18.8
2020-Sep-22 22:15 295 3 gusting 7 19.0
2020-Sep-22 22:10 302 4 gusting 6 19.2
2020-Sep-22 22:05 303 4 gusting 6 19.4
2020-Sep-22 22:00 307 3 gusting 7 19.6
2020-Sep-22 21:55 306 5 gusting 10 19.6
2020-Sep-22 21:50 305 5 gusting 9 19.7
2020-Sep-22 21:45 302 5 gusting 9 19.8
2020-Sep-22 21:40 298 5 gusting 8 19.9
2020-Sep-22 21:35 300 4 gusting 6 20.0
2020-Sep-22 21:30 301 4 gusting 9 20.0
2020-Sep-22 21:25 302 4 gusting 10 20.1
2020-Sep-22 21:20 311 5 gusting 9 20.1
2020-Sep-22 21:15 302 6 gusting 10 20.3
2020-Sep-22 21:10 305 5 gusting 8 20.5
2020-Sep-22 21:05 302 3 gusting 7 20.6
2020-Sep-22 21:00 321 3 gusting 7 20.6
2020-Sep-22 20:55 319 3 gusting 6 20.7
2020-Sep-22 20:50 310 3 gusting 5 20.8
2020-Sep-22 20:45 317 3 gusting 6 20.8
2020-Sep-22 20:40 329 3 gusting 6 20.9
2020-Sep-22 20:35 325 3 gusting 7 20.9
2020-Sep-22 20:30 317 4 gusting 7 20.9
2020-Sep-22 20:25 341 4 gusting 7 21.1
2020-Sep-22 20:20 324 3 gusting 8 21.0
2020-Sep-22 20:15 331 3 gusting 6 21.2
2020-Sep-22 20:10 337 4 gusting 9 21.1
2020-Sep-22 20:05 328 3 gusting 8 20.9
2020-Sep-22 20:00 337 5 gusting 9 20.9
2020-Sep-22 19:55 315 4 gusting 9 21.0
2020-Sep-22 19:50 329 3 gusting 7 21.0
2020-Sep-22 19:45 335 3 gusting 7 20.7
2020-Sep-22 19:40 317 5 gusting 11 20.6
2020-Sep-22 19:35 310 5 gusting 10 20.5
2020-Sep-22 19:30 300 5 gusting 10 20.7
2020-Sep-22 19:25 309 5 gusting 10 20.8
2020-Sep-22 19:20 311 4 gusting 8 20.7
2020-Sep-22 19:15 314 6 gusting 12 20.8
2020-Sep-22 19:10 311 4 gusting 8 20.6
2020-Sep-22 19:05 329 5 gusting 9 20.6
2020-Sep-22 19:00 321 5 gusting 11 20.7
2020-Sep-22 18:55 323 4 gusting 8 20.6
2020-Sep-22 18:50 310 6 gusting 11 20.4
2020-Sep-22 18:45 320 4 gusting 11 20.6
2020-Sep-22 18:40 303 6 gusting 10 20.6
2020-Sep-22 18:35 322 4 gusting 7 20.8
2020-Sep-22 18:30 323 4 gusting 8 20.8
2020-Sep-22 18:25 334 5 gusting 9 20.9
2020-Sep-22 18:20 337 5 gusting 11 20.9
2020-Sep-22 18:15 322 3 gusting 8 20.6
2020-Sep-22 18:10 305 6 gusting 11 20.5
2020-Sep-22 18:05 338 4 gusting 8 20.8
2020-Sep-22 18:00 351 5 gusting 10 20.9
2020-Sep-22 17:55 004 5 gusting 12 20.7
2020-Sep-22 17:50 343 5 gusting 11 20.3
2020-Sep-22 17:45 347 6 gusting 13 20.7
2020-Sep-22 17:40 351 5 gusting 10 20.4
2020-Sep-22 17:35 325 5 gusting 12 20.6
2020-Sep-22 17:30 342 4 gusting 9 20.6
2020-Sep-22 17:25 333 4 gusting 8 20.7
2020-Sep-22 17:20 20.6
2020-Sep-22 17:15 358 5 gusting 11 20.3
2020-Sep-22 17:10 320 5 gusting 8 20.0
2020-Sep-22 17:05 340 4 gusting 9 20.1
2020-Sep-22 17:00 312 6 gusting 10 19.7
2020-Sep-22 16:55 335 5 gusting 9 20.2
2020-Sep-22 16:50 335 4 gusting 10 19.9
2020-Sep-22 16:45 342 4 gusting 8 19.8
2020-Sep-22 16:40 331 5 gusting 8 19.6
2020-Sep-22 16:35 331 5 gusting 11 19.3
2020-Sep-22 16:30 323 5 gusting 10 19.4
2020-Sep-22 16:25 340 5 gusting 10 19.4
2020-Sep-22 16:20 332 5 gusting 9 19.5
2020-Sep-22 16:15 002 5 gusting 10 19.5
2020-Sep-22 16:10 352 5 gusting 10 19.3
2020-Sep-22 16:05 331 5 gusting 9 19.1
2020-Sep-22 16:00 345 4 gusting 8 19.6
2020-Sep-22 15:55 003 3 gusting 9 19.3
2020-Sep-22 15:50 350 4 gusting 8 19.2
2020-Sep-22 15:45 355 4 gusting 9 18.8
2020-Sep-22 15:40 355 4 gusting 9 18.8
2020-Sep-22 15:35 341 5 gusting 9 18.5
2020-Sep-22 15:30 339 4 gusting 8 18.6
2020-Sep-22 15:25 010 4 gusting 8 18.5
2020-Sep-22 15:20 349 4 gusting 9 18.2
2020-Sep-22 15:15 353 4 gusting 8 18.3
2020-Sep-22 15:10 001 4 gusting 7 18.3
2020-Sep-22 15:05 005 4 gusting 8 18.0
2020-Sep-22 15:00 356 5 gusting 10 17.7
2020-Sep-22 14:55 359 4 gusting 10 17.4
2020-Sep-22 14:50 348 4 gusting 9 17.1
2020-Sep-22 14:45 345 4 gusting 9 17.1
2020-Sep-22 14:40 356 4 gusting 8 17.0
2020-Sep-22 14:35 348 4 gusting 7 17.0
2020-Sep-22 14:30 345 3 gusting 7 16.8
2020-Sep-22 14:25 356 3 gusting 8 16.8
2020-Sep-22 14:20 003 3 gusting 7 16.9
2020-Sep-22 14:15 355 4 gusting 8 16.5
2020-Sep-22 14:10 001 3 gusting 5 16.6
2020-Sep-22 14:05 012 4 gusting 8 16.2
2020-Sep-22 14:00 004 3 gusting 7 15.6
2020-Sep-22 13:55 15.5
2020-Sep-22 13:50 358 3 gusting 6 15.4
2020-Sep-22 13:45 005 3 gusting 8 15.1
2020-Sep-22 13:40 008 3 gusting 6 14.5
2020-Sep-22 13:35 348 5 gusting 8 14.2
2020-Sep-22 13:30 355 4 gusting 8 14.2
2020-Sep-22 13:25 354 3 gusting 5 14.2
2020-Sep-22 13:20 012 3 gusting 6 13.9
2020-Sep-22 13:15 018 3 gusting 6 13.8
2020-Sep-22 13:10 007 3 gusting 5 13.5
2020-Sep-22 13:05 001 3 gusting 6 13.0
2020-Sep-22 13:00 359 3 gusting 6 12.9
2020-Sep-22 12:55 354 2 gusting 5 12.7
2020-Sep-22 12:50 359 2 gusting 4 12.4
2020-Sep-22 12:45 359 2 gusting 5 12.0
2020-Sep-22 12:40 347 2 gusting 5 11.7
2020-Sep-22 12:35 356 2 gusting 6 11.6
2020-Sep-22 12:30 346 2 gusting 6 11.2
2020-Sep-22 12:25 345 1 gusting 3 10.8
2020-Sep-22 12:20 334 1 gusting 2 10.4
2020-Sep-22 12:15 326 1 gusting 2 9.9
2020-Sep-22 12:10 328 1 gusting 2 9.5
2020-Sep-22 12:05 319 1 gusting 2 9.1
2020-Sep-22 12:00 301 1 gusting 2 8.8
2020-Sep-22 11:55 301 1 gusting 1 8.6
2020-Sep-22 11:50 302 1 gusting 2 8.5
2020-Sep-22 11:45 307 0 gusting 1 8.2
2020-Sep-22 11:40 301 0 gusting 1 8.0
2020-Sep-22 11:35 307 1 gusting 2 7.8
2020-Sep-22 11:30 308 1 gusting 1 7.5
2020-Sep-22 11:25 304 0 gusting 1 7.2
2020-Sep-22 11:20 304 1 gusting 2 6.9
2020-Sep-22 11:15 310 1 gusting 2 6.6
2020-Sep-22 11:10 306 1 gusting 2 6.4
2020-Sep-22 11:05 297 1 gusting 2 6.3
2020-Sep-22 11:00 299 1 gusting 2 6.3
2020-Sep-22 10:55 301 1 gusting 2 6.3
2020-Sep-22 10:50 300 1 gusting 2 6.4
2020-Sep-22 10:45 301 1 gusting 2 6.4
2020-Sep-22 10:40 303 1 gusting 2 6.4
2020-Sep-22 10:35 296 1 gusting 2 6.4
2020-Sep-22 10:30 303 1 gusting 2 6.5
2020-Sep-22 10:25 304 1 gusting 2 6.6
2020-Sep-22 10:20 306 1 gusting 1 6.6
2020-Sep-22 10:15 305 1 gusting 2 6.5
2020-Sep-22 10:10 299 1 gusting 1 6.4
2020-Sep-22 10:05 290 1 gusting 1 6.5
2020-Sep-22 10:00 292 1 gusting 1 6.6
2020-Sep-22 09:55 300 1 gusting 1 6.7
2020-Sep-22 09:50 298 1 gusting 1 6.8
2020-Sep-22 09:45 296 1 gusting 2 6.8
2020-Sep-22 09:40 303 1 gusting 2 6.7
2020-Sep-22 09:35 303 1 gusting 1 6.3
2020-Sep-22 09:30 6.1
2020-Sep-22 09:25 6.2
2020-Sep-22 09:20 6.5
2020-Sep-22 09:15 331 0 gusting 2 6.7
2020-Sep-22 09:10 003 0 gusting 2 6.9
2020-Sep-22 09:05 360 0 gusting 2 6.9
2020-Sep-22 09:00 338 0 gusting 1 7.0
2020-Sep-22 08:55 331 1 gusting 2 7.0
2020-Sep-22 08:50 315 0 gusting 1 7.0
2020-Sep-22 08:45 337 1 gusting 3 7.0
2020-Sep-22 08:40 348 1 gusting 3 7.0
2020-Sep-22 08:35 346 1 gusting 3 6.9
2020-Sep-22 08:30 319 0 gusting 2 6.6
2020-Sep-22 08:25 333 0 gusting 0 6.5
2020-Sep-22 08:20 013 0 gusting 1 6.5
2020-Sep-22 08:15 017 0 gusting 1 6.7
2020-Sep-22 08:10 338 1 gusting 2 6.7
2020-Sep-22 08:05 307 1 gusting 2 6.6
2020-Sep-22 08:00 304 1 gusting 2 6.6
2020-Sep-22 07:55 298 2 gusting 3 6.6
2020-Sep-22 07:50 305 1 gusting 1 6.8
2020-Sep-22 07:45 302 1 gusting 2 6.8
2020-Sep-22 07:40 299 1 gusting 2 6.8
2020-Sep-22 07:35 295 0 gusting 1 6.8
2020-Sep-22 07:30 301 0 gusting 1 6.9
2020-Sep-22 07:25 301 1 gusting 1 6.8
2020-Sep-22 07:20 302 0 gusting 1 6.7
2020-Sep-22 07:15 300 1 gusting 1 6.7
2020-Sep-22 07:10 307 1 gusting 1 6.7
2020-Sep-22 07:05 305 1 gusting 1 6.8
2020-Sep-22 07:00 301 1 gusting 1 6.8